Regional Weather Roundup
Issued by NWS Cleveland, OH

Home | Current Version | Previous Version | Graphics & Text | Print | Product List | Glossary On
Versions: 1 2 3 4 5 6 7 8 9 10 11 12 13 14 15 16 17 18 19 20 21 22 23 24 25 26 27 28 29 30 31 32 33 34 35 36 37 38 39 40 41 42 43 44 45 46 47 48 49 50
000
ASUS41 KCLE 011010
RWRCLE
OHIO REGIONAL WEATHER ROUNDUP
NATIONAL WEATHER SERVICE CLEVELAND, OH
600 AM EDT WED OCT 01 2014

NOTE: "FAIR" INDICATES FEW OR NO CLOUDS BELOW 12,000 FEET WITH NO
SIGNIFICANT WEATHER AND/OR OBSTRUCTIONS TO VISIBILITY.

OHZ001>008-015>018-024>027-034-035-043-044-011100-
   NORTHWEST OHIO

CITY           SKY/WX    TMP DP  RH WIND       PRES   REMARKS
DEFIANCE       CLEAR     48  45  89 CALM      30.03R
FINDLAY        PTCLDY    52  49  89 N3        30.00S
TOLEDO EXPRESS PTCLDY    47  46  97 CALM      30.02R
TOLEDO EXEC    CLEAR     47  44  90 NW3       30.02S
LIMA           CLOUDY    50  48  93 CALM      30.01S FOG
$$

OHZ009>014-019>023-028>033-038-089-011100-
   NORTHEAST OHIO

CITY           SKY/WX    TMP DP  RH WIND       PRES   REMARKS
CLE-HOPKINS    CLOUDY    55  53  93 CALM      30.02S
CLE-LAKEFRONT  CLOUDY    59  54  83 CALM      30.00R
CUY CO. ARPT   NOT AVBL
LORAIN-ELYRIA  CLOUDY    56  52  86 N3        30.01S
ASHTABULA      CLOUDY    49  48  97 CALM      30.00S
AKRON-CANTON   CLOUDY    56  52  86 N9        29.99S
WOOSTER        CLOUDY    56  52  86 NE5       30.00S
MANSFIELD      CLOUDY    50  50 100 CALM      30.01R FOG
YOUNGSTOWN     FOG       54  54 100 N3        30.00R VSB 1/8
$$

OHZ042-051>053-060>062-070>072-077>081-011100-
  SOUTHWEST OHIO

CITY           SKY/WX    TMP DP  RH WIND       PRES   REMARKS
CINC-COVINGTON CLEAR     53  48  83 NE5       29.98S
CINC-LUNKEN    CLEAR     45  45 100 NE3       30.00S
HAMILTON       CLEAR     41  40  96 CALM      30.01S
DAYTON         CLOUDY    47  47 100 NE5       30.01S FOG
WRIGHT-PAT AFB MOCLDY    46  45  96 CALM      30.00S FOG
DAYTON GENERAL CLEAR     44  43  96 NE7       29.99S
WILMINGTON     CLOUDY    45  44  97 E5        29.99S FOG
$$

OHZ036-037-039>041-045>050-054>059-063>069-073>076-082>088-011100-
  CENTRAL AND SOUTHEAST OHIO

CITY           SKY/WX    TMP DP  RH WIND       PRES   REMARKS
COLUMBUS       CLOUDY    52  50  93 CALM      29.99S
OSU AIRPORT    FOG       49  48  97 N5        30.00R VSB 1/2
BOLTON FIELD   CLOUDY    50  50 100 N3        30.00S FOG
RICKENBACK AFB CLOUDY    52  50  94 NE6       29.99S
NEWARK         CLOUDY    53  51  93 CALM      29.99S
MARION         FOG       48  47  96 CALM      30.01R VSB 1/2
LANCASTER      CLOUDY    53  51  93 E7        30.00R FOG
ZANESVILLE     CLOUDY    54  52  93 N5        29.99R FOG
NEW PHILLY     CLOUDY    56  55  97 CALM      30.00R FOG
$$


USA.gov is the U.S. government's official web portal to all federal, state and local government web resources and services.